Voltar ao catálogo

STARLINK-5614

AtivoComunicaçõesVLEO
NORAD 55756·PAYLOAD·🇺🇸 United States

Lançado Mar 3, 2023 de Vandenberg Space Force Base

Loading…

Próximas Passagens (próximas 24 horas)

TLE

AtualizadoSource: CelesTrak SupGP

Época: Sep 14, 2026, 20:50 UTC

1 55756C 23028R   26257.86854167 -.00031875  00000+0 -26715-2 0  2575
2 55756  70.0002 127.2837 0002657 270.7248  28.4974 14.98344115    14

Acompanhe STARLINK-5614 em tempo real com AllMySat

Download on the App Store